Location: Oshawa
(43.9000°N, 78.8670°W)
Time: 09:24:03
(UTC-04:00)

Cosmos 1821 Rocket - Visible Passes

Search period start: 31 July 2015 00:00
Search period end: 10 August 2015 00:00
Orbit: 944 x 1006 km, 82.9° (Epoch: 29 July)

Date Brightness Start Highest point End Pass type
(mag) Time Alt. Az. Time Alt. Az. Time Alt. Az.
31 Jul 6.8 03:06:50 10° NE 03:08:50 12° ENE 03:11:13 10° E visible
31 Jul 4.2 04:49:22 10° N 04:55:31 75° E 05:01:43 10° SSE visible
01 Aug 6.3 03:30:22 10° NNE 03:34:51 21° ENE 03:39:32 10° ESE visible
01 Aug 4.0 05:14:46 10° NNW 05:20:50 63° W 05:26:56 10° S visible
02 Aug 5.4 03:55:01 10° N 04:00:37 37° ENE 04:06:20 10° SE visible
03 Aug 4.4 04:20:04 10° N 04:26:11 64° E 04:32:22 10° SSE visible
04 Aug 6.4 03:01:21 10° NNE 03:05:23 18° ENE 03:09:41 10° ESE visible
04 Aug 3.9 04:45:24 10° NNW 04:51:33 74° W 04:57:45 10° S visible
05 Aug 5.6 03:25:50 10° N 03:31:14 32° ENE 03:36:45 10° SE visible
05 Aug 4.4 05:11:02 10° NNW 05:16:47 41° W 05:22:32 10° SSW visible
06 Aug 4.6 03:50:48 10° N 03:56:51 55° ENE 04:02:58 10° SSE visible
06 Aug 5.1 05:37:04 10° NNW 05:41:52 24° W 05:46:33 10° SW visible
07 Aug 6.4 02:32:24 10° NNE 02:35:55 16° ENE 02:39:44 10° E visible
07 Aug 3.9 04:16:03 10° N 04:22:16 85° W 04:28:32 10° S visible
08 Aug 5.7 02:56:41 10° NNE 03:01:49 28° ENE 03:07:08 10° SE visible
08 Aug 4.2 04:41:36 10° NNW 04:47:32 49° W 04:53:24 10° SSW visible
09 Aug 4.8 03:21:33 10° N 03:27:30 48° ENE 03:33:07 12° SSE visible
09 Aug 4.9 05:07:29 10° NNW 05:12:39 28° W 05:17:43 10° SW visible
